Weather in Saýat

Turkmenistan     38°46′49″N   63°52′48″E
temp.,
°C
wind,
m/s
gust,
m/s
humid.,
%
clouds,
%
prec.,
mm/h
press.,
hPa
HPBL,
m
19 april, mon
mon1923:00+23e34281 0.0 101885
02:00+22ese33325 0.0 101620
05:00+20ese33395 0.0 101530
08:00+21se343798 0.0 1015218
11:00+25ssw3424100 0.0 10141714
14:00+27sw3319100 0.0 10122508
17:00+28nw341870 0.0 10112709
20:00+26nnw4519100 0.0 1011749
20 april, tue
tue2023:00+25nnw352495 0.0 1011138
02:00+22n333153 0.0 101129
05:00+21ne22315 0.0 101111
08:00+23e112632 0.0 101395
11:00+26sw232099 0.0 10131393
14:00+29wsw461752 0.0 10113488
17:00+30wsw671559 0.0 10093579
20:00+27wnw810185 0.0 1010734
21 april, wed
wed2123:00+23nnw10133321 0.0 1012808
02:00+19n7115199 0.0 1013637
05:00+17n59595 0.0 1015500
08:00+18n56536 0.0 1017669
11:00+21n55360 0.0 10171209
14:00+23n55284 0.0 10161631
17:00+24n76231 0.0 10161833
20:00+22nne7823100 0.0 10171006
22 april, thu
thu2223:00+18nne8926100 0.0 1018737
02:00+15nne7930100 0.0 1019444
05:00+13n693884 0.0 1019334
08:00+15nne554056 0.0 1020329
11:00+20nne33275 0.0 1021927
14:00+24n54180 0.0 10201449
17:00+25nne55135 0.0 10191522
20:00+23nne46145 0.0 1019215
23 april, fri
fri2323:00+20nne5826100 0.0 1020200
02:00+17ne593284 0.0 1019265
05:00+16nne59394 0.0 1019218
08:00+17ne57363 0.0 1020361
11:00+22ne34235 0.0 1020705
14:00+26ne22145 0.0 10181367
17:00+28ene34103 0.0 10161622
20:00+26ene221216 0.0 101617